Millville, NJ

12:12 PM EST on December 10, 2019 (GMT -0500)
Millville Municipal

Weather History for KMIV - October, 2019

Change the Weather History Date:

Wednesday, October 23, 2019

  Actual Average Record
Temperature  
Mean Temperature 54 °F -  
Max Temperature 66 °F 65 °F 82 °F (1975)
Min Temperature 43 °F 43 °F 26 °F (2003)
Degree Days  
Heating Degree Days 10    
Growing Degree Days 4 (Base 50)    
Moisture  
Dew Point 47 °F    
Average Humidity 72    
Maximum Humidity 93    
Minimum Humidity 33    
Precipitation  
Precipitation 0.00 in - - ()
Sea Level Pressure  
Sea Level Pressure 29.99 in    
Wind  
Wind Speed 7 mph ()    
Max Wind Speed 15 mph    
Max Gust Speed 28 mph    
Visibility 10.0 miles    
Events      
Averages and records for this station are not official NWS values.
T = Trace of Precipitation, MM = Missing Value Source: Averaged Metar Reports

Daily Weather History Graph

Daily Weather History Graph

Search for Another Location

Airport or City:

Astronomy

Oct. 23, 2019 Rise Set
Actual Time 7:18 AM EDT 6:10 PM EDT
Civil Twilight 6:50 AM EDT 6:37 PM EDT
Nautical Twilight 6:19 AM EDT 7:09 PM EDT
Astronomical Twilight 5:48 AM EDT 7:40 PM EDT
Moon 1:36 AM EDT (10/23) 3:57 PM EDT (10/23)
Length of Visible Light 11h 46m
Length of Day
10h 52m
Waning Crescent, 27% of the Moon is Illuminated
Oct 23
Waning Crescent
Oct 27
New
Nov 4
First Quarter
Nov 12
Full
Nov 19
Last Quarter

Hourly Weather History & Observations

Time (EDT) Temp. Windchill Dew Point Humidity Pressure Visibility Wind Dir Wind Speed Gust Speed Precip Events Conditions
12:04 AM 63.0 °F - 61.0 °F 93% 29.81 in 10.0 mi West 9.2 mph - N/A   Overcast
12:54 AM 62.1 °F - 59.0 °F 90% 29.80 in 10.0 mi WNW 5.8 mph - N/A   Overcast
1:02 AM 62.1 °F - 59.0 °F 90% 29.80 in 10.0 mi WNW 6.9 mph - N/A   Overcast
1:54 AM 61.0 °F - 57.9 °F 90% 29.81 in 10.0 mi NW 9.2 mph - N/A   Overcast
2:54 AM 59.0 °F - 55.9 °F 90% 29.81 in 10.0 mi WNW 5.8 mph - N/A   Scattered Clouds
3:54 AM 57.0 °F - 54.0 °F 89% 29.83 in 10.0 mi WNW 8.1 mph - N/A   Clear
4:54 AM 55.0 °F - 53.1 °F 93% 29.86 in 10.0 mi West 8.1 mph - N/A   Clear
5:54 AM 53.1 °F - 51.1 °F 93% 29.88 in 10.0 mi WNW 5.8 mph - N/A   Clear
6:54 AM 54.0 °F - 51.1 °F 90% 29.92 in 10.0 mi WNW 11.5 mph - N/A   Clear
7:54 AM 53.1 °F - 51.1 °F 93% 29.96 in 10.0 mi West 8.1 mph - N/A   Clear
8:54 AM 55.9 °F - 52.0 °F 87% 30.00 in 10.0 mi WNW 9.2 mph - N/A   Clear
9:54 AM 60.1 °F - 48.9 °F 67% 30.01 in 10.0 mi NW 9.2 mph - N/A   Clear
10:54 AM 63.0 °F - 46.0 °F 54% 30.02 in 10.0 mi WNW 11.5 mph - N/A   Clear
11:54 AM 64.0 °F - 43.0 °F 46% 30.02 in 10.0 mi WNW 12.7 mph - N/A   Clear
12:54 PM 66.0 °F - 39.0 °F 37% 30.03 in 10.0 mi West 15.0 mph 27.6 mph N/A   Mostly Cloudy
1:54 PM 66.9 °F - 37.9 °F 34% 30.01 in 10.0 mi NW 11.5 mph 21.9 mph N/A   Clear
2:54 PM 66.0 °F - 36.0 °F 33% 30.02 in 10.0 mi West 12.7 mph 25.3 mph N/A   Clear
3:54 PM 66.0 °F - 37.9 °F 36% 30.04 in 10.0 mi West 13.8 mph 23.0 mph N/A   Clear
4:54 PM 64.9 °F - 36.0 °F 34% 30.05 in 10.0 mi West 15.0 mph - N/A   Clear
5:54 PM 61.0 °F - 37.9 °F 42% 30.08 in 10.0 mi West 8.1 mph - N/A   Clear
6:54 PM 53.1 °F - 41.0 °F 64% 30.12 in 10.0 mi West 4.6 mph - N/A   Clear
7:54 PM 46.9 °F - 43.0 °F 86% 30.15 in 10.0 mi West 3.5 mph - N/A   Clear
8:54 PM 45.0 °F - 42.1 °F 90% 30.17 in 10.0 mi Calm Calm - N/A   Clear
9:54 PM 45.0 °F 43.5 °F 41.0 °F 86% 30.19 in 10.0 mi West 3.5 mph - N/A   Clear
10:54 PM 43.0 °F 40.3 °F 39.9 °F 89% 30.21 in 10.0 mi WNW 4.6 mph - N/A   Clear
11:54 PM 46.9 °F - 41.0 °F 80% 30.21 in 10.0 mi West 4.6 mph - N/A   Clear